| time (UTC) | temp C | wind direction | speed KPH | gust KPH | rain 1hr cm | rain 24hr cm | rain mn cm | humidity % | barometer mb |
| 20260506041944 | 7 | 240 | 35.4 | 0.0 | 0.00 | 0.00 | 0.00 | 99 | |
| 20260506031746 | 8 | 220 | 35.4 | 0.0 | 0.00 | 0.00 | 0.00 | 99 | |
| 20260506021745 | 8 | 240 | 32.2 | 0.0 | 0.00 | 0.00 | 0.00 | 99 | |
| 20260506011846 | 8 | 240 | 29.0 | 0.0 | 0.00 | 0.00 | 0.00 | 99 | |
| 20260506001744 | 10 | 250 | 22.5 | 0.0 | 0.00 | 0.00 | 0.00 | 93 | |
| 20260505231745 | 10 | 270 | 19.3 | 0.0 | 0.00 | 0.00 | 0.00 | 93 | |
| 20260505221745 | 8 | 260 | 57.9 | 0.0 | 0.00 | 0.00 | 0.00 | 99 | |
| 20260505211801 | 8 | 260 | 72.4 | 0.0 | 0.00 | 0.00 | 0.00 | 99 | |
| 20260505201800 | 12 | 40 | 25.7 | 0.0 | 0.00 | 0.00 | 0.00 | 93 | |
| 20260505191817 | 12 | 40 | 25.7 | 41.8 | 0.00 | 0.00 | 0.00 | 93 | |
| 20260505181802 | 13 | 20 | 38.6 | 0.0 | 0.00 | 0.00 | 0.00 | 87 | |
| 20260505171745 | 13 | 10 | 38.6 | 0.0 | 0.00 | 0.00 | 0.00 | 87 | |
| 20260505161845 | 16 | 20 | 29.0 | 0.0 | 0.00 | 0.00 | 0.00 | 82 | |
| 20260505151744 | 17 | 10 | 29.0 | 46.7 | 0.00 | 0.00 | 0.00 | 72 | |
| 20260505121744 | 20 | 30 | 14.5 | 0.0 | 0.00 | 0.00 | 0.00 | 60 | |
| 20260505111745 | 20 | 30 | 11.3 | 0.0 | 0.00 | 0.00 | 0.00 | 60 | |
| 20260505101745 | 17 | 30 | 14.5 | 0.0 | 0.00 | 0.00 | 0.00 | 63 | |
| 20260505092606 | 17 | 10 | 14.5 | 0.0 | 0.00 | 0.00 | 0.00 | 67 | |
| 20260505091744 | 17 | 10 | 14.5 | 0.0 | 0.00 | 0.00 | 0.00 | 67 | |
| 20260505081745 | 16 | 20 | 14.5 | 0.0 | 0.00 | 0.00 | 0.00 | 67 | |
| 20260505071745 | 13 | 20 | 11.3 | 0.0 | 0.00 | 0.00 | 0.00 | 76 | |
| 20260505061745 | 15 | 80 | 3.2 | 0.0 | 0.00 | 0.00 | 0.00 | 62 | |
| 20260505051745 | 13 | 110 | 3.2 | 0.0 | 0.00 | 0.00 | 0.00 | 67 |